�������l�o���
Date,Time,MP-1(��Sv/h),MP-2(��Sv/h),MP-3(��Sv/h),MP-4(��Sv/h),MP-5(��Sv/h),MP-6(��Sv/h),MP-7(��Sv/h),MP-8(��Sv/h),����,����(m/s),���J
2016/12/18,00:00,1.070,1.813,1.180,2.055,1.405,0.561,1.031,0.957,�쐼,1.1,��
2016/12/18,00:10,1.072,1.813,1.179,2.054,1.406,0.563,1.032,0.957,�쐼,0.8,��
2016/12/18,00:20,1.074,1.812,1.178,2.055,1.405,0.563,1.031,0.956,��,1.4,��
2016/12/18,00:30,1.070,1.809,1.177,2.053,1.404,0.560,1.030,0.956,��쓌,2.0,��
2016/12/18,00:40,1.071,1.813,1.180,2.055,1.405,0.561,1.031,0.958,��쓌,2.6,��
2016/12/18,00:50,1.074,1.810,1.178,2.056,1.405,0.561,1.030,0.957,��쓌,4.0,��
2016/12/18,01:00,1.072,1.809,1.177,2.053,1.406,0.562,1.031,0.957,�쓌,2.9,��
2016/12/18,01:10,1.070,1.811,1.178,2.056,1.405,0.563,1.029,0.957,���쓌,3.0,��
2016/12/18,01:20,1.072,1.809,1.181,2.053,1.405,0.563,1.031,0.957,�쓌,3.0,��
2016/12/18,01:30,1.071,1.812,1.178,2.055,1.403,0.560,1.030,0.956,�쓌,3.0,��
2016/12/18,01:40,1.070,1.811,1.180,2.053,1.401,0.561,1.029,0.955,��,1.5,��
2016/12/18,01:50,1.071,1.811,1.181,2.057,1.404,0.561,1.030,0.958,�쐼,0.6,��
2016/12/18,02:00,1.070,1.813,1.176,2.052,1.405,0.561,1.028,0.956,-,CALM,��
2016/12/18,02:10,1.073,1.808,1.179,2.052,1.403,0.562,1.029,0.956,-,CALM,��
2016/12/18,02:20,1.070,1.811,1.179,2.054,1.405,0.562,1.030,0.958,��쓌,0.6,��
2016/12/18,02:30,1.067,1.809,1.181,2.054,1.402,0.561,1.030,0.958,��쓌,0.9,��
2016/12/18,02:40,1.072,1.808,1.178,2.056,1.404,0.562,1.029,0.955,���쓌,1.1,��
2016/12/18,02:50,1.071,1.808,1.177,2.054,1.403,0.562,1.028,0.956,���k��,1.5,��
2016/12/18,03:00,1.073,1.808,1.176,2.053,1.403,0.561,1.032,0.957,�k�k��,1.1,��
2016/12/18,03:10,1.073,1.811,1.179,2.052,1.404,0.560,1.028,0.957,���k��,1.7,��
2016/12/18,03:20,1.069,1.809,1.178,2.054,1.404,0.562,1.028,0.956,���k��,0.9,��
2016/12/18,03:30,1.071,1.810,1.179,2.052,1.401,0.561,1.029,0.955,�k��,1.1,��
2016/12/18,03:40,1.069,1.807,1.177,2.057,1.403,0.562,1.029,0.956,�k��,0.6,��
2016/12/18,03:50,1.070,1.809,1.179,2.054,1.401,0.561,1.031,0.954,��,0.9,��
2016/12/18,04:00,1.069,1.808,1.177,2.051,1.401,0.561,1.031,0.956,���쓌,0.9,��
2016/12/18,04:10,1.071,1.809,1.178,2.053,1.401,0.561,1.028,0.955,��쓌,0.8,��
2016/12/18,04:20,1.070,1.810,1.175,2.051,1.404,0.560,1.029,0.957,�쓌,0.6,��
2016/12/18,04:30,1.069,1.808,1.178,2.053,1.402,0.561,1.027,0.956,���쓌,0.9,��
2016/12/18,04:40,1.070,1.810,1.177,2.055,1.402,0.561,1.028,0.957,�쓌,0.9,��
2016/12/18,04:50,1.069,1.807,1.176,2.052,1.400,0.563,1.031,0.956,��쓌,0.9,��
2016/12/18,05:00,1.072,1.808,1.179,2.056,1.401,0.562,1.029,0.956,��쓌,0.8,��
2016/12/18,05:10,1.072,1.808,1.178,2.055,1.401,0.562,1.028,0.955,��쓌,1.1,��
2016/12/18,05:20,1.070,1.810,1.177,2.053,1.400,0.561,1.029,0.957,�쓌,0.6,��
2016/12/18,05:30,1.071,1.810,1.178,2.055,1.401,0.560,1.028,0.957,��쓌,1.2,��
2016/12/18,05:40,1.070,1.807,1.175,2.054,1.398,0.560,1.030,0.958,��쐼,1.1,��
2016/12/18,05:50,1.067,1.807,1.177,2.056,1.401,0.562,1.029,0.955,��,1.5,��
2016/12/18,06:00,1.069,1.809,1.176,2.051,1.402,0.560,1.031,0.956,���k��,1.5,��
2016/12/18,06:10,1.070,1.807,1.175,2.051,1.401,0.561,1.031,0.957,���k��,1.7,��
2016/12/18,06:20,1.070,1.808,1.175,2.051,1.401,0.563,1.030,0.956,���k��,2.6,��
2016/12/18,06:30,1.068,1.808,1.178,2.052,1.400,0.561,1.029,0.956,���k��,4.0,��
2016/12/18,06:40,1.067,1.809,1.175,2.049,1.399,0.559,1.029,0.956,���k��,4.3,��
2016/12/18,06:50,1.069,1.809,1.178,2.053,1.401,0.561,1.029,0.954,�k��,4.8,��
2016/12/18,07:00,1.069,1.810,1.178,2.053,1.399,0.561,1.029,0.956,�k��,4.5,��
2016/12/18,07:10,1.068,1.809,1.176,2.053,1.400,0.560,1.029,0.957,�k��,4.3,��
2016/12/18,07:20,1.070,1.809,1.175,2.052,1.400,0.560,1.029,0.957,��,3.9,��
2016/12/18,07:30,1.070,1.808,1.176,2.054,1.401,0.560,1.028,0.957,���쐼,3.9,��
2016/12/18,07:40,1.069,1.806,1.173,2.055,1.401,0.561,1.030,0.956,���쐼,3.4,��
2016/12/18,07:50,1.070,1.811,1.177,2.054,1.400,0.562,1.030,0.956,�쐼,3.3,��
2016/12/18,08:00,1.073,1.808,1.176,2.055,1.400,0.563,1.031,0.956,�쐼,3.3,��
2016/12/18,08:10,1.073,1.810,1.177,2.056,1.401,0.563,1.031,0.958,��,3.6,��
2016/12/18,08:20,1.073,1.807,1.178,2.056,1.403,0.562,1.031,0.957,��쐼,2.6,��
2016/12/18,08:30,1.074,1.811,1.178,2.056,1.402,0.562,1.030,0.957,��,3.9,��
2016/12/18,08:40,1.073,1.811,1.179,2.057,1.403,0.562,1.031,0.958,��쓌,3.8,��
2016/12/18,08:50,1.075,1.810,1.179,2.057,1.402,0.562,1.031,0.957,��쓌,2.9,��
2016/12/18,09:00,1.078,1.812,1.179,2.058,1.401,0.562,1.034,0.958,��쓌,2.9,��
2016/12/18,09:10,1.075,1.813,1.180,2.056,1.406,0.562,1.033,0.960,��,2.5,��
2016/12/18,09:20,1.077,1.812,1.181,2.059,1.408,0.563,1.032,0.959,��,1.9,��
2016/12/18,09:30,1.077,1.816,1.181,2.060,1.410,0.563,1.033,0.958,�쐼,2.0,��
2016/12/18,09:40,1.077,1.816,1.183,2.061,1.409,0.563,1.036,0.960,���쐼,3.3,��
2016/12/18,09:50,1.079,1.818,1.181,2.062,1.407,0.565,1.032,0.960,��,5.9,��
2016/12/18,10:00,1.080,1.821,1.184,2.061,1.408,0.565,1.032,0.960,��,4.4,��
2016/12/18,10:10,1.078,1.823,1.186,2.065,1.408,0.566,1.033,0.961,���쐼,5.5,��
2016/12/18,10:20,1.082,1.821,1.186,2.064,1.410,0.566,1.031,0.959,���쐼,4.5,��
2016/12/18,10:30,1.083,1.820,1.186,2.064,1.410,0.563,1.034,0.962,���쐼,5.4,��
2016/12/18,10:40,1.082,1.819,1.185,2.067,1.413,0.567,1.034,0.960,���쐼,4.9,��
2016/12/18,10:50,1.083,1.820,1.187,2.063,1.413,0.568,1.033,0.960,���쐼,7.9,��
2016/12/18,11:00,1.085,1.817,1.187,2.067,1.414,0.567,1.034,0.960,���쐼,5.1,��
2016/12/18,11:10,1.083,1.818,1.186,2.067,1.413,0.567,1.034,0.959,���쐼,6.2,��
2016/12/18,11:20,1.083,1.820,1.189,2.070,1.414,0.566,1.034,0.960,��,7.4,��
2016/12/18,11:30,1.084,1.819,1.188,2.063,1.415,0.565,1.035,0.961,��,7.6,��
2016/12/18,11:40,1.082,1.819,1.190,2.067,1.413,0.569,1.033,0.962,���k��,9.8,��
2016/12/18,11:50,1.086,1.819,1.186,2.068,1.414,0.568,1.033,0.962,���쐼,5.6,��
2016/12/18,12:00,1.085,1.819,1.186,2.070,1.414,0.569,1.033,0.962,��,7.2,��
2016/12/18,12:10,1.084,1.817,1.189,2.070,1.415,0.567,1.035,0.960,���k��,5.4,��
2016/12/18,12:20,1.085,1.821,1.192,2.067,1.415,0.568,1.034,0.963,���k��,4.2,��
2016/12/18,12:30,1.084,1.822,1.191,2.067,1.418,0.568,1.035,0.962,��,5.5,��
2016/12/18,12:40,1.084,1.822,1.189,2.069,1.415,0.570,1.036,0.964,��,3.8,��
2016/12/18,12:50,1.086,1.820,1.190,2.069,1.416,0.568,1.033,0.961,��,3.7,��
2016/12/18,13:00,1.086,1.821,1.190,2.067,1.416,0.570,1.037,0.961,��,5.9,��
2016/12/18,13:10,1.084,1.821,1.190,2.068,1.412,0.569,1.033,0.960,���쐼,8.8,��
2016/12/18,13:20,1.088,1.822,1.188,2.071,1.417,0.568,1.035,0.960,���쐼,9.5,��
2016/12/18,13:30,1.085,1.823,1.188,2.073,1.417,0.569,1.034,0.960,���쐼,7.2,��
2016/12/18,13:40,1.084,1.823,1.192,2.069,1.417,0.570,1.035,0.958,���쐼,8.0,��
2016/12/18,13:50,1.085,1.823,1.191,2.069,1.418,0.569,1.034,0.959,���쐼,7.4,��
2016/12/18,14:00,1.085,1.819,1.194,2.071,1.417,0.570,1.038,0.959,���쐼,7.6,��
2016/12/18,14:10,1.088,1.822,1.191,2.069,1.418,0.570,1.036,0.960,���쐼,8.2,��
2016/12/18,14:20,1.086,1.819,1.190,2.074,1.420,0.571,1.037,0.960,���쐼,7.3,��
2016/12/18,14:30,1.086,1.821,1.190,2.071,1.417,0.570,1.037,0.959,���쐼,7.5,��
2016/12/18,14:40,1.090,1.821,1.193,2.073,1.417,0.569,1.035,0.960,���쐼,8.7,��
2016/12/18,14:50,1.086,1.821,1.193,2.069,1.419,0.570,1.036,0.961,���쐼,8.7,��
2016/12/18,15:00,1.085,1.823,1.194,2.071,1.420,0.570,1.035,0.961,���쐼,8.2,��
2016/12/18,15:10,1.088,1.825,1.191,2.072,1.417,0.570,1.036,0.961,��,8.3,��
2016/12/18,15:20,1.088,1.827,1.192,2.071,1.421,0.570,1.037,0.962,���쐼,7.8,��
2016/12/18,15:30,1.088,1.824,1.191,2.070,1.419,0.569,1.037,0.963,���쐼,7.4,��
2016/12/18,15:40,1.088,1.829,1.194,2.074,1.418,0.569,1.035,0.963,���쐼,8.3,��
2016/12/18,15:50,1.088,1.830,1.194,2.072,1.415,0.569,1.037,0.963,���쐼,5.7,��
2016/12/18,16:00,1.087,1.829,1.193,2.075,1.416,0.570,1.037,0.962,���쐼,6.9,��
2016/12/18,16:10,1.089,1.824,1.192,2.071,1.418,0.569,1.037,0.963,���쐼,7.7,��
2016/12/18,16:20,1.090,1.828,1.193,2.069,1.418,0.570,1.036,0.962,�쐼,7.4,��
2016/12/18,16:30,1.087,1.828,1.193,2.074,1.422,0.571,1.036,0.963,�쐼,5.9,��
2016/12/18,16:40,1.087,1.826,1.191,2.074,1.424,0.569,1.035,0.960,���쐼,6.2,��
2016/12/18,16:50,1.090,1.827,1.192,2.073,1.420,0.569,1.036,0.962,���쐼,5.8,��
2016/12/18,17:00,1.088,1.828,1.194,2.073,1.423,0.571,1.037,0.961,���쐼,6.1,��
2016/12/18,17:10,1.088,1.825,1.192,2.073,1.422,0.569,1.036,0.960,�쐼,5.1,��
2016/12/18,17:20,1.089,1.826,1.189,2.073,1.421,0.570,1.037,0.960,���쐼,5.7,��
2016/12/18,17:30,1.088,1.825,1.193,2.072,1.419,0.569,1.037,0.961,�쐼,7.0,��
2016/12/18,17:40,1.089,1.827,1.191,2.074,1.424,0.571,1.037,0.962,�쐼,7.0,��
2016/12/18,17:50,1.087,1.828,1.191,2.075,1.421,0.570,1.037,0.960,���쐼,7.6,��
2016/12/18,18:00,1.087,1.829,1.191,2.072,1.420,0.570,1.036,0.961,�쐼,5.8,��
2016/12/18,18:10,1.088,1.825,1.192,2.072,1.420,0.569,1.037,0.962,�쐼,6.9,��
2016/12/18,18:20,1.090,1.830,1.193,2.075,1.420,0.570,1.036,0.960,���쐼,8.0,��
2016/12/18,18:30,1.089,1.827,1.191,2.073,1.421,0.569,1.038,0.961,���쐼,6.4,��
2016/12/18,18:40,1.088,1.828,1.192,2.073,1.423,0.569,1.038,0.962,�쐼,5.6,��
2016/12/18,18:50,1.089,1.830,1.192,2.071,1.421,0.570,1.039,0.961,�쐼,4.6,��
2016/12/18,19:00,1.091,1.830,1.191,2.071,1.421,0.570,1.039,0.961,���쐼,4.0,��
2016/12/18,19:10,1.088,1.828,1.193,2.073,1.424,0.570,1.035,0.961,���쐼,3.8,��
2016/12/18,19:20,1.089,1.826,1.191,2.072,1.421,0.571,1.037,0.961,���쐼,3.5,��
2016/12/18,19:30,1.090,1.829,1.193,2.073,1.418,0.570,1.038,0.961,��,2.9,��
2016/12/18,19:40,1.091,1.829,1.194,2.073,1.424,0.570,1.037,0.960,�쐼,2.3,��
2016/12/18,19:50,1.090,1.827,1.188,2.072,1.422,0.570,1.037,0.961,��쐼,2.5,��
2016/12/18,20:00,1.090,1.831,1.193,2.070,1.421,0.569,1.037,0.959,���쐼,3.6,��
2016/12/18,20:10,1.088,1.826,1.193,2.071,1.421,0.569,1.036,0.961,��,3.0,��
2016/12/18,20:20,1.088,1.827,1.192,2.073,1.420,0.570,1.035,0.962,���쐼,4.1,��
2016/12/18,20:30,1.087,1.828,1.190,2.070,1.422,0.570,1.037,0.961,�쐼,4.6,��
2016/12/18,20:40,1.089,1.828,1.189,2.072,1.421,0.569,1.035,0.962,�쐼,5.6,��
2016/12/18,20:50,1.092,1.825,1.191,2.072,1.421,0.568,1.038,0.962,���쐼,7.1,��
2016/12/18,21:00,1.087,1.826,1.191,2.074,1.422,0.570,1.039,0.961,�쐼,8.7,��
2016/12/18,21:10,1.088,1.826,1.193,2.074,1.423,0.570,1.038,0.961,���쐼,7.5,��
2016/12/18,21:20,1.090,1.830,1.192,2.075,1.422,0.569,1.038,0.960,���쐼,5.7,��
2016/12/18,21:30,1.091,1.829,1.193,2.075,1.423,0.569,1.037,0.962,���쐼,5.2,��
2016/12/18,21:40,1.088,1.829,1.191,2.073,1.422,0.568,1.037,0.961,���쐼,6.3,��
2016/12/18,21:50,1.090,1.829,1.192,2.074,1.421,0.568,1.036,0.961,���쐼,5.9,��
2016/12/18,22:00,1.093,1.830,1.194,2.073,1.424,0.571,1.038,0.962,���쐼,5.6,��
2016/12/18,22:10,1.089,1.829,1.193,2.079,1.421,0.571,1.036,0.964,��,5.4,��
2016/12/18,22:20,1.089,1.828,1.191,2.074,1.421,0.570,1.035,0.962,��,4.4,��
2016/12/18,22:30,1.090,1.829,1.191,2.073,1.420,0.569,1.036,0.960,���k��,3.2,��
2016/12/18,22:40,1.089,1.825,1.188,2.075,1.422,0.570,1.036,0.962,��,2.0,��
2016/12/18,22:50,1.086,1.829,1.190,2.073,1.421,0.569,1.035,0.960,�쐼,2.6,��
2016/12/18,23:00,1.091,1.824,1.193,2.073,1.421,0.569,1.037,0.961,���쐼,4.1,��
2016/12/18,23:10,1.087,1.823,1.191,2.070,1.419,0.568,1.038,0.959,���쐼,5.8,��
2016/12/18,23:20,1.089,1.827,1.192,2.072,1.420,0.569,1.036,0.960,���쐼,7.5,��
2016/12/18,23:30,1.088,1.825,1.192,2.075,1.423,0.568,1.037,0.961,�쐼,6.1,��
2016/12/18,23:40,1.091,1.828,1.191,2.073,1.423,0.568,1.036,0.961,���쐼,6.9,��
2016/12/18,23:50,1.089,1.831,1.191,2.076,1.420,0.568,1.037,0.962,�쐼,6.9,��
